Location: Geyikbay?r?
(36.8756°N, 30.4583°E)
Time: 23:43:11
(UTC+00:00)

Cosmos 1812 - Pass Details

Date: 05 August 2024
Orbit: 458 x 460 km, 82.5° (Epoch: 18 September)

Event Time Altitude Azimuth Distance (km) Brightness Sun altitude
Rises 18:11:06 0° 354° (N) 2,496 6.8 -13.3°
Reaches altitude 10° 18:13:11 10° 357° (N) 1,619 5.7 -13.7°
Maximum altitude 18:16:43 75° 83° (E) 485 2.4 -14.3°
Enters shadow 18:19:02 20° 167° (SSE) 1,122 4.0 -14.7°
